User: anonymous   Login
Location: Unspecified
(0.0000°N, 0.0000°E)
Time: 12:00:04
(UTC+00:00)
Language:

YUBILEINY - Orbit

View from above orbital plane
View from above orbital plane
View from above satellite
View from above satellite

Ground track
Ground track

The orbit data is extracted from the following two-line orbital elements,

1 32953U 08025A   19085.05586134  .00000020  00000-0  75656-4 0  9997
2 32953  82.5066 197.3833 0017930 315.7732  44.1918 12.43088199491795
Epoch (UTC): 26 March 2019 01:20:26
Eccentricity: 0.0017930
inclination: 82.5066°
perigee height: 1479 km
apogee height: 1507 km
right ascension of ascending node: 197.3833°
argument of perigee: 315.7732°
revolutions per day: 12.43088199
mean anomaly at epoch: 44.1918°
orbit number at epoch: 49179

The dashed part of the orbit path shows where the satellite is in the earth's shadow,  

DLR